GW4679 Weather Reports


Display with metric or nautical units.
time (UTC)temp
F
wind
direction
speed
MPH
gust
MPH
rain 1hr
in
rain 24hr
in
rain mn
in
humidity
%
barometer
mb
20260504180007 81 58 2.0 7.0 0.00 0.11 0.10 73 1015.1
20260504174504 80 22 1.0 8.0 0.00 0.11 0.10 73 1015.1
20260504173006 82 39 3.0 9.0 0.00 0.11 0.10 72 1015.2
20260504171504 84 75 2.0 7.0 0.00 0.11 0.10 71 1015.3
20260504081515 70 269 0.0 1.0 0.04 0.50 0.10 95 1013.7
20260504044514 73 43 0.0 1.0 0.00 0.40 0.00 92 1015.5
20260504043020 73 43 0.0 1.0 0.00 0.40 0.00 91 1015.5
20260504041523 74 43 0.0 1.0 0.00 0.40 0.00 89 1015.4
20260504040025 75 43 0.0 1.0 0.00 0.40 0.00 88 1015.5
20260504034526 75 43 0.0 2.0 0.00 0.40 0.40 88 1015.5
20260504033013 75 32 0.0 2.0 0.00 0.40 0.40 87 1015.5
20260504031523 75 50 0.0 3.0 0.00 0.40 0.40 87 1015.6
20260504030023 75 67 0.0 3.0 0.00 0.40 0.40 87 1015.7
20260504024524 75 65 0.0 1.0 0.00 0.40 0.40 86 1015.8
20260504023030 75 71 0.0 3.0 0.01 0.40 0.40 86 1015.7
20260504021528 75 53 0.0 3.0 0.01 0.40 0.40 86 1015.4
20260504020019 75 57 0.0 2.0 0.01 0.40 0.40 87 1015.4
20260504014522 75 96 0.0 3.0 0.01 0.40 0.40 87 1015.5
20260504013033 75 81 0.0 4.0 0.00 0.39 0.39 87 1015.5
20260504011529 75 300 0.0 1.0 0.00 0.39 0.39 88 1015.3
20260504010030 76 300 0.0 1.0 0.00 0.39 0.39 86 1015.1
20260504004526 76 311 0.0 1.0 0.00 0.39 0.39 85 1014.8
20260504003006 77 315 0.0 0.0 0.00 0.39 0.39 83 1014.7
20260504001508 77 335 0.0 1.0 0.00 0.39 0.39 82 1014.9
20260504000033 78 63 0.0 4.0 0.00 0.39 0.39 82 1014.7
20260503234503 78 11 0.0 4.0 0.00 0.39 0.39 82 1014.2
20260503233007 78 73 1.0 3.0 0.00 0.39 0.39 81 1014.1
20260503231505 78 359 0.0 3.0 0.00 0.39 0.39 81 1014.2
20260503230011 79 298 0.0 1.0 0.00 0.39 0.39 81 1014.3
20260503224516 79 306 0.0 1.0 0.00 0.39 0.39 81 1014.2
20260503223005 78 289 0.0 2.0 0.00 0.39 0.39 83 1014.1
20260503221502 78 304 0.0 4.0 0.00 0.39 0.39 83 1014.2
20260503220007 79 55 0.0 1.0 0.00 0.39 0.39 81 1014.1
20260503214513 79 94 0.0 3.0 0.00 0.39 0.39 80 1014.1
20260503213016 80 41 1.0 3.0 0.00 0.39 0.39 77 1014.2
20260503211504 81 6 0.0 1.0 0.00 0.39 0.39 78 1014.4
20260503210005 80 37 0.0 1.0 0.00 0.39 0.39 78 1014.6
20260503204508 80 303 0.0 1.0 0.00 0.39 0.39 80 1014.7
20260503203024 80 251 0.0 1.0 0.00 0.39 0.39 81 1014.6
20260503201518 80 250 0.0 1.0 0.00 0.39 0.39 80 1014.7
20260503200024 80 259 0.0 1.0 0.00 0.39 0.39 78 1014.6
20260503194512 81 302 0.0 1.0 0.00 0.39 0.39 77 1014.8
20260503193012 81 40 2.0 3.0 0.00 0.39 0.39 74 1014.9
20260503191516 81 49 0.0 4.0 0.00 0.39 0.39 75 1015.2
20260503190021 80 77 0.0 3.0 0.00 0.39 0.39 77 1015.6
20260503184526 79 73 3.0 5.0 0.00 0.39 0.39 78 1015.7
20260503183007 79 146 1.0 3.0 0.00 0.39 0.39 78 1015.8
20260503181515 79 39 0.0 3.0 0.00 0.39 0.39 80 1016.1